CZ-6A DEB, 64636

Orbit data source: Space-Track

CZ-6A DEB, 64636 is space debris in LEO originally from a launch on Tue, 06 Aug 2024 UTC launched from the Taiyaun Space Center, China (TSC). Debris objects in space refer to the collection of defunct objects orbiting the Earth. Examples of debris include non-operational satellites, rocket bodies, and fragments generated from explosions, collisions, or faulty payload assembly.

Loading next visibility...
Identifier
64636, 2024-140AEA
Orbit
LEO
Country
Flag of CNCN / PRC
Related business
Manufacturer
SAST
Mission
Spacecraft
Bus & Motor
Unknown
Mass
Unknown
Launch date (UTC)
2024-08-06 (2 years ago)
Launch vehicle
Unknown
Launch site
Taiyaun Space Center, China (TSC)
Object type
Payload
Rocket body
Debris
Shape & HBR
Unknown shape, 0.1 m
Radar Cross Section
Small (<0.1 m²)

Expand to show TLE details & history
Last TLE update: 4 days ago

TLE from 4 days ago
0 CZ-6A DEB
1 64636U 24140AEA 26168.02140062  .00000917  00000-0  42638-3 0  9997
2 64636  89.0514 278.9791 0059909 170.3566 189.8789 14.18836237 90346
Epoch: 2026-06-17T00:30Z
TLE epoch observation values (Epoch: 2026-06-17T00:30:49.013Z)
Latitude
-0.00005°
Longitude
5.98982°
Altitude
874.898 km
Speed
7.393 km/s
True Right ascension
18h 35m 54s
True Declination
0° 00' 00"
Sunlit
Object was in full shadow at epoch
Visualization orbit readout
Latitude
Unknown
Longitude
Unknown
Altitude
Unknown
Speed
Unknown
Apparent Right ascension
Unknown
Apparent Declination
Unknown
Sunlit
N/A
Visualization observer readout
Local Sidereal Time
07:20:26
Azimuth
Unknown
Elevation
Unknown
Doppler factor
Unknown
Orbital elements
Apogee altitude
869.404 km
Perigee altitude
783.083 km
Semi-major axis
7,204.381 km
Eccentricity
0.00599
Inclination
89.0514°
RAAN
278.9791°
Arg. of periapsis
170.3566°
True anomaly
189.76198°
Mean anomaly
189.8789°
Eccentric anomaly
189.82035°
Mean motion
3.54934 °/min
Orbital period
101.43 mins
BSTAR
0.00042638
Loading maneuver chart data...
Computing Atmospheric mass density...
Loading historical data...
Loading historical data...
Loading historical data...
Loading historical data...
Loading historical data...
Loading historical data...
Loading historical data...

Documentation

Showing up to 5 results
|